sat.trackr.live / text

‹ back to catalog

O3B MPOWER F10

NORAD 64867 · 2025-153B

PAYLOAD ACTIVE UNKNOWN

§ Identity

Operator
Country
O3B
Launch date
2025-07-22
Launch site
AFETR
Launch vehicle
Mass (kg)
RCS (m²)

Purposes: comms

External: N2YO · Heavens-Above · Gunter

§ Orbital elements

Epoch: 2026-05-24T22:54:32.253408Z

Period
287.93 min
Inclination
0.0555°
Eccentricity
0.0002033
Mean motion
5.00114857 rev/d
Perigee alt
8,063.0 km
Apogee alt
8,068.8 km
Semi-major
14,444.0 km
B*
0.0000e+0
RAAN
8.5671°
Arg perigee
261.1912°
Mean anomaly
90.2178°
Rev number
2,087

§ Raw data

O3B MPOWER F101 64867U 25153B   26144.95453997 -.00000024  00000+0  00000+0 0  99902 64867   0.0555   8.5671 0002033 261.1912  90.2178  5.00114857 20870

JSON: /api/v1/satellites/64867 · /tle

For live sub-satellite position, see the globe view (requires WebGL).

§ Visibility from observer

Set your observer location to see the next 7 days of passes ≥ 10°. The values pass through the URL so the page stays shareable.

No JS? Fill the form by hand. The geolocation button needs JavaScript.